Terug naar catalogus

THOR ABLESTAR DEB

ActiefLEO
NORAD 144·DEBRIS·🇺🇸 United States

Gelanceerd Jun 29, 1961 vanaf Cape Canaveral Space Force Station

Loading…

Volgende Passages (komende 24 uur)

TLE

VersSource: Space-Track

Epoch: Sep 8, 2026, 19:25 UTC

1 00144U 61015AE  26251.80920254  .00000133  00000-0  16543-3 0  9997
2 00144  66.4993 181.0893 0048021 299.9140  59.7171 13.91713301296283

Volg THOR ABLESTAR DEB in realtime met AllMySat

Download on the App Store